Regional Weather Roundup
Issued by NWS

Home | Current Version | Previous Version | Graphics & Text | Print | Product List | Glossary Off
Versions: 1 2 3 4 5 6 7 8 9 10 11 12 13 14 15 16 17 18 19 20 21 22 23 24 25 26 27 28 29 30 31 32 33 34 35 36 37 38 39 40 41 42 43 44 45 46 47 48 49 50

000
ASUS43 KTOP 300908
RWRKS

WEATHER ROUNDUP FOR KANSAS
NATIONAL WEATHER SERVICE GOODLAND KS
400 AM CDT WED JUL 30 2014

NOTE:  "FAIR" INDICATES FEW OR NO CLOUDS BELOW 12,000 FEET WITH NO
SIGNIFICANT WEATHER AND/OR OBSTRUCTIONS TO VISIBILITY.

KSZ001>006-013>018-027>032-041>047-301000-
NORTHWEST KANSAS

CITY           SKY/WX    TMP DP  RH WIND       PRES   REMARKS
GOODLAND       CLOUDY    62  61  96 N10       30.15S
HAYS           CLOUDY    70  55  60 NE10      30.09F
HILL CITY      CLOUDY    69  56  62 NE13      30.13R
RUSSELL        CLOUDY    69  58  67 E9        30.09R
$$

KSZ061>065-074>080-084>089-301000-
SOUTHWEST KANSAS

CITY           SKY/WX    TMP DP  RH WIND       PRES   REMARKS
DODGE CITY     LGT RAIN  65  62  90 NE9       30.09S
ELKHART          N/A     62  57  83 S12         N/A
GARDEN CITY    RAIN      65  64  97 E12       30.07F FOG
GREAT BEND     CLOUDY    66  61  82 SE6       30.06F
LIBERAL        CLOUDY    66  61  82 S9        30.06R
PRATT          RAIN      66  63  88 S7        30.10S
$$

KSZ066>073-081>083-090>101-301000-
SOUTHEAST KANSAS

CITY           SKY/WX    TMP DP  RH WIND       PRES   REMARKS
CHANUTE        CLOUDY    69  63  81 NE5       30.07F
COFFEYVILLE    CLOUDY    69  64  84 NE3       30.05F
HUTCHINSON     CLOUDY    68  60  75 E3        30.07F
MEDICINE LODGE   N/A     68  67  96 SE3       30.07F
NEWTON         MOCLDY    66  54  63 SE5       30.10F
PARSONS        CLOUDY    69  61  75 CALM      30.07F
WICHITA INTL   MOCLDY    70  61  73 S3        30.06F
WICHITA JABRA  MOCLDY    66  59  78 CALM      30.06F
WICHITA MCCONL MOCLDY    69  61  75 SE5       30.06F
WINFIELD       MOCLDY    71  62  73 E5        30.07F
$$

KSZ007>012-019>026-033>040-048>060-102>105-301000-
NORTHEAST KANSAS

CITY           SKY/WX    TMP DP  RH WIND       PRES   REMARKS
CONCORDIA      CLOUDY    65  65 100 CALM      30.13R
EMPORIA        CLOUDY    67  63  87 NE5       30.08F
LAWRENCE       CLOUDY    67  63  87 CALM      30.09F
MANHATTAN      LGT RAIN  65  63  93 CALM      30.11F
MARYSVILLE     CLOUDY    63  59  88 CALM      30.12S
OLATHE IND     MOCLDY    69  60  73 CALM      30.10S
OLATHE EXE     MOCLDY    69  59  70 CALM      30.09F
SALINA         CLOUDY    72  58  61 NE10      30.09F
TOPEKA BILLARD CLOUDY    70  63  78 CALM      30.10S
TOPEKA FORBES  CLOUDY    69  62  78 CALM      30.10S
$$


USA.gov is the U.S. government's official web portal to all federal, state and local government web resources and services.